This demonstration page uses our WeatherBlox Daily Observations layout. Learn more.

Left ArrowRight Arrow

Hourly Observations for February 12, 2016

Temp ( °F °C ) Dew Point ( °F °C ) Humidity (%) Winds ( mph kmh ) Pressure ( in mb ) Visibility ( mi km ) Precip ( " mm )
12:59 am 00:59 Clear 28 -2.2 7 -13.9 41 41 N 7 11 30.35 1028 10 16 0.00 0.00
1:59 am 01:59 Clear 27 -2.8 9 -12.8 46 46 N 10 17 30.35 1028 10 16 0.00 0.00
2:59 am 02:59 Clear 26 -3.3 8 -13.3 46 46 N 10 17 30.35 1028 10 16 0.00 0.00
3:59 am 03:59 Mostly Clear 26 -3.3 8 -13.3 46 46 N 8 13 30.35 1028 10 16 0.00 0.00
4:59 am 04:59 Mostly Clear 26 -3.3 8 -13.3 46 46 N 8 13 30.35 1028 10 16 0.00 0.00
5:59 am 05:59 Partly Cloudy 25 -3.9 8 -13.3 48 48 N 6 9 30.35 1028 10 16 0.00 0.00
6:59 am 06:59 Mostly Sunny 25 -3.9 11 -11.7 55 55 NE 5 7 30.32 1027 10 16 0.00 0.00
7:59 am 07:59 Partly Cloudy 28 -2.2 12 -11.1 51 51 NE 5 7 30.33 1027 10 16 0.00 0.00
8:59 am 08:59 Mostly Cloudy 30 -1.1 11 -11.7 45 45 NNE 7 11 30.33 1027 10 16 0.00 0.00
9:59 am 09:59 Mostly Cloudy 29 -1.7 12 -11.1 49 49 E 7 11 30.32 1027 10 16 0.00 0.00
10:59 am 10:59 Mostly Cloudy 29 -1.7 12 -11.1 49 49 ESE 7 11 30.27 1025 10 16 0.00 0.00
11:59 am 11:59 Cloudy 31 -0.6 13 -10.6 47 47 E 8 13 30.24 1024 10 16 0.00 0.00
12:59 pm 12:59 Cloudy 30 -1.1 13 -10.6 49 49 E 6 9 30.19 1022 10 16 0.00 0.00
1:59 pm 13:59 Cloudy 31 -0.6 14 -10 49 49 E 6 9 30.15 1021 10 16 0.00 0.00
2:37 pm 14:37 Cloudy with Light Snow 30 -1.1 18 -7.8 61 61 NE 5 7 30.12 1020 3 4 0.00 0.03
2:59 pm 14:59 Cloudy with Light Snow 29 -1.7 20 -6.7 69 69 Calm 30.10 1019 3 4 0.00 0.03
3:02 pm 15:02 Cloudy with Light Snow 29 -1.7 20 -6.7 69 69 ESE 6 9 30.09 1019 2 2 0.00 0.03
3:07 pm 15:07 Cloudy with Light Snow 28 -2.2 21 -6.1 75 75 ESE 6 9 30.09 1019 1 1 0.00 0.03
3:17 pm 15:17 Cloudy with Light Snow 28 -2.2 22 -5.6 78 78 SE 5 7 30.09 1019 2 2 0.00 0.03
3:21 pm 15:21 Cloudy with Light Snow 28 -2.2 22 -5.6 78 78 SE 6 9 30.09 1019 2 3 0.00 0.03
3:28 pm 15:28 Mostly Cloudy with Light Snow 28 -2.2 22 -5.6 78 78 ESE 7 11 30.09 1019 1 2 0.00 0.03
3:40 pm 15:40 Cloudy with Light Snow 27 -2.8 23 -5 85 85 ESE 5 7 30.09 1019 1 1 0.00 0.03
3:59 pm 15:59 Cloudy with Light Snow 28 -2.2 23 -5 81 81 SE 7 11 30.09 1019 1 2 0.01 0.25
4:14 pm 16:14 Cloudy with Light Snow 28 -2.2 24 -4.4 85 85 SSE 5 7 30.09 1019 1 2 0.01 0.25
4:39 pm 16:39 Cloudy with Light Snow 27 -2.8 22 -5.6 81 81 SE 3 6 30.06 1018 3 5 0.01 0.25
4:46 pm 16:46 Cloudy with Light Snow 28 -2.2 23 -5 81 81 VRB 3 6 30.06 1018 5 8 0.01 0.25
4:59 pm 16:59 Cloudy with Light Snow 28 -2.2 23 -5 81 81 VRB 3 6 30.06 1018 3 5 0.02 0.51
5:27 pm 17:27 Cloudy with Light Snow 28 -2.2 23 -5 81 81 SSE 3 6 30.03 1017 4 6 0.00 0.03
5:41 pm 17:41 Cloudy 28 -2.2 23 -5 81 81 S 3 6 30.03 1017 7 11 0.00 0.03
5:59 pm 17:59 Cloudy 28 -2.2 23 -5 81 81 Calm 30.02 1017 9 14 0.00 0.03
6:59 pm 18:59 Cloudy 29 -1.7 23 -5 78 78 WNW 5 7 30.04 1017 9 14 0.00 0.00
7:13 pm 19:13 Cloudy 29 -1.7 23 -5 78 78 W 7 11 30.03 1017 9 14 0.00 0.00
7:59 pm 19:59 Cloudy 29 -1.7 23 -5 78 78 WSW 6 9 30.02 1017 10 16 0.00 0.00
8:59 pm 20:59 Cloudy 29 -1.7 23 -5 78 78 W 8 13 30.02 1017 10 16 0.00 0.00
9:06 pm 21:06 Cloudy 29 -1.7 23 -5 78 78 WSW 8 13 30.03 1017 10 16 0.00 0.00
9:18 pm 21:18 Mostly Cloudy 29 -1.7 23 -5 78 78 W 8 13 30.03 1017 10 16 0.00 0.00
9:59 pm 21:59 Mostly Cloudy 28 -2.2 22 -5.6 78 78 W 8 13 30.03 1017 10 16 0.00 0.00
10:59 pm 22:59 Partly Cloudy 28 -2.2 22 -5.6 78 78 W 10 17 30.02 1017 10 16 0.00 0.00
11:59 pm 23:59 Mostly Cloudy 28 -2.2 22 -5.6 78 78 WNW 9 15 30.02 1017 10 16 0.00 0.00

Powered by AerisWeather